sat.trackr.live / text

‹ back to catalog

FORMOSAT 7-4

NORAD 44350 · 2019-036M

PAYLOAD ACTIVE UNKNOWN

§ Identity

Operator
Country
ROC
Launch date
2019-06-25
Launch site
AFETR
Launch vehicle
Mass (kg)
RCS (m²)

External: N2YO · Heavens-Above · Gunter

§ Orbital elements

Epoch: 2026-09-19T11:22:43.796928Z

Period
96.20 min
Inclination
23.9971°
Eccentricity
0.0001059
Mean motion
14.96832853 rev/d
Perigee alt
576.0 km
Apogee alt
577.4 km
Semi-major
6,954.8 km
B*
1.3789e-4
RAAN
178.6775°
Arg perigee
200.3347°
Mean anomaly
159.7112°
Rev number
39,821

§ Raw data

FORMOSAT 7-41 44350U 19036M   26262.47411802  .00001922  00000+0  13789-3 0  99942 44350  23.9971 178.6775 0001059 200.3347 159.7112 14.96832853398212

JSON: /api/v1/satellites/44350 · /tle

For live sub-satellite position, see the globe view (requires WebGL).

§ Visibility from observer

Set your observer location to see the next 7 days of passes ≥ 10°. The values pass through the URL so the page stays shareable.

No JS? Fill the form by hand. The geolocation button needs JavaScript.

§ Radio — SatNOGS DB

ModeDescriptionDownlinkUplink
CW CW 400.900 MHz
FM Mode S TT&C 2.264 GHz
FM Mode S2 2.200 GHz

3 transmitters · refreshed weekly from db.satnogs.org